N8SHA Weather Reports


Display with metric or nautical units.
time (UTC)temp
F
wind
direction
speed
MPH
gust
MPH
rain 1hr
in
rain 24hr
in
rain mn
in
humidity
%
barometer
mb
20260903222600 71 290 0.0 2.0 0.00 1.04 1.04 99 1014.8
20260903222059 71 315 0.0 3.0 0.00 1.04 1.04 99 1014.9
20260903221555 71 66 0.0 4.0 0.00 1.04 1.04 99 1014.7
20260903221052 71 309 0.0 2.0 0.00 1.04 1.04 99 1014.8
20260903220551 71 310 2.0 3.0 0.00 1.04 1.04 99 1015.0
20260903220051 71 154 0.0 2.0 0.00 1.04 1.04 99 1015.4
20260903215550 71 309 0.0 0.0 0.00 1.04 1.04 99 1015.7
20260903215049 71 330 2.0 2.0 0.00 1.04 1.04 99 1015.5
20260903214544 71 89 0.0 1.0 0.00 1.04 1.04 99 1015.4
20260903214039 71 60 1.0 2.0 0.00 1.04 1.04 99 1015.8
20260903213534 71 127 0.0 2.0 0.00 1.04 1.04 99 1015.6
20260903213030 71 96 0.0 2.0 0.00 1.04 1.04 99 1016.0
20260903212526 71 25 0.0 1.0 0.00 1.04 1.04 99 1016.1
20260903212021 71 326 0.0 2.0 0.00 1.04 1.04 99 1016.0
20260903211516 71 124 0.0 1.0 0.00 1.04 1.04 99 1016.4
20260903211013 71 58 0.0 2.0 0.00 1.04 1.04 99 1016.5
20260903210507 72 102 0.0 1.0 0.00 1.04 1.04 99 1016.3
20260903210002 72 187 0.0 1.0 0.00 1.04 1.04 99 1016.2
20260903205456 71 89 0.0 3.0 0.00 1.04 1.04 99 1016.1
20260903204950 72 321 0.0 2.0 0.00 1.04 1.04 99 1016.1
20260903204447 71 69 0.0 5.0 0.00 1.04 1.04 99 1015.9
20260903203942 72 75 1.0 3.0 0.00 1.04 1.04 99 1015.6
20260903203438 72 317 3.0 4.0 0.00 1.04 1.04 99 1015.5
20260903202937 72 5 1.0 3.0 0.00 1.04 1.04 99 1015.5
20260903202433 71 40 1.0 3.0 0.00 1.04 1.04 99 1015.9
20260903201927 71 342 3.0 5.0 0.00 1.04 1.04 99 1016.2
20260903201423 71 22 2.0 3.0 0.00 1.04 1.04 99 1016.3
20260903200921 70 330 1.0 3.0 0.00 1.04 1.04 99 1016.7
20260903200416 70 41 2.0 3.0 0.02 1.04 1.04 99 1016.8
20260903195912 70 339 0.0 3.0 0.02 1.03 1.03 99 1016.5
20260903195408 69 63 0.0 5.0 0.05 1.03 1.03 99 1016.1
20260903194902 70 316 3.0 5.0 0.09 1.03 1.03 99 1015.8
20260903194358 70 23 3.0 5.0 0.38 1.03 1.03 98 1016.3
20260903193853 70 63 0.0 3.0 0.57 1.01 1.01 98 1016.7
20260903193350 70 126 2.0 11.0 0.85 0.95 0.95 98 1017.4
20260903192844 70 321 4.0 5.0 1.28 0.91 0.91 97 1016.6
20260903192340 70 0 5.0 15.0 0.50 0.76 0.76 96 1016.0
20260903191837 73 358 4.0 16.0 0.00 0.67 0.67 94 1016.0
20260903191332 76 22 6.0 12.0 0.00 0.67 0.67 96 1015.5
20260903190831 76 318 2.0 3.0 0.00 0.67 0.67 96 1015.1
20260903190326 76 89 0.0 0.0 0.00 0.67 0.67 96 1014.5
20260903185826 76 87 0.0 1.0 0.00 0.67 0.67 95 1014.5
20260903185321 77 104 0.0 2.0 0.00 0.67 0.67 95 1014.8
20260903184817 77 104 0.0 1.0 0.00 0.67 0.67 94 1014.8
20260903184314 77 109 1.0 2.0 0.00 0.67 0.67 93 1014.8
20260903183808 78 99 0.0 2.0 0.00 0.67 0.67 93 1014.9
20260903183302 78 103 0.0 1.0 0.00 0.67 0.67 92 1014.8
20260903182801 78 283 0.0 2.0 0.00 0.67 0.67 91 1014.7
20260903182256 78 32 0.0 1.0 0.00 0.67 0.67 91 1014.7
20260903181755 78 135 0.0 3.0 0.00 0.67 0.67 90 1014.8
20260903181250 79 161 1.0 4.0 0.00 0.67 0.67 88 1014.8
20260903180746 79 117 0.0 1.0 0.00 0.67 0.67 89 1014.8
20260903180245 81 117 0.0 2.0 0.00 0.67 0.67 89 1014.9
20260903175744 79 195 0.0 3.0 0.00 0.67 0.67 89 1014.7
20260903175244 78 186 1.0 4.0 0.00 0.67 0.67 92 1014.7
20260903174743 78 193 0.0 2.0 0.00 0.67 0.67 94 1014.3
20260903174239 78 140 1.0 2.0 0.00 0.67 0.67 93 1014.5
20260903173734 77 163 1.0 3.0 0.00 0.67 0.67 95 1014.6
20260903173229 77 351 0.0 2.0 0.00 0.67 0.67 97 1014.6
20260903172724 77 82 0.0 3.0 0.00 0.67 0.67 98 1014.7
20260903172219 76 49 1.0 3.0 0.00 0.67 0.67 99 1014.7
20260903171714 76 158 0.0 2.0 0.00 0.67 0.67 99 1014.7
20260903171210 76 135 0.0 1.0 0.00 0.67 0.67 99 1014.6
20260903170709 75 215 0.0 2.0 0.00 0.67 0.67 99 1014.5
20260903170204 74 75 1.0 3.0 0.00 0.67 0.67 99 1014.7
20260903165702 73 61 1.0 3.0 0.00 0.67 0.67 99 1014.9
20260903165157 72 251 1.0 3.0 0.00 0.67 0.67 99 1014.7
20260903164652 72 52 1.0 3.0 0.00 0.67 0.67 99 1015.0
20260903164148 72 24 1.0 3.0 0.00 0.67 0.67 99 1014.8
20260903163648 71 89 2.0 3.0 0.00 0.67 0.67 99 1014.9
20260903163144 72 24 2.0 3.0 0.00 0.67 0.67 99 1014.9
20260903162640 72 78 1.0 2.0 0.00 0.67 0.67 99 1014.9
20260903162135 72 100 1.0 3.0 0.00 0.67 0.67 99 1015.1
20260903161630 72 75 2.0 2.0 0.00 0.67 0.67 99 1015.2
20260903161126 72 46 1.0 2.0 0.00 0.67 0.67 99 1015.4
20260903160621 72 53 1.0 2.0 0.02 0.67 0.67 99 1015.4
20260903160115 72 5 0.0 3.0 0.02 0.67 0.67 99 1015.5
20260903155614 72 77 0.0 1.0 0.00 0.67 0.67 99 1015.6
20260903155109 71 164 0.0 1.0 0.00 0.67 0.67 99 1015.6
20260903154605 70 142 0.0 2.0 0.00 0.67 0.67 99 1015.9
20260903154102 70 152 2.0 3.0 0.00 0.67 0.67 99 1016.0
20260903153557 69 15 0.0 1.0 0.00 0.67 0.67 99 1016.1
20260903153052 69 99 1.0 2.0 0.02 0.67 0.67 99 1015.8
20260903152548 69 157 2.0 2.0 0.12 0.67 0.67 99 1016.7
20260903152045 69 35 1.0 2.0 0.45 0.67 0.67 99 1017.4
20260903151543 69 94 2.0 3.0 0.52 0.64 0.64 98 1017.5
20260903151039 69 36 2.0 5.0 0.35 0.59 0.59 98 1017.6
20260903150532 69 109 3.0 3.0 1.47 0.55 0.55 98 1017.6
20260903150028 70 339 4.0 12.0 2.08 0.52 0.52 97 1017.8
20260903145522 74 136 7.0 24.0 0.61 0.26 0.26 96 1018.1
20260903145018 76 215 4.0 5.0 0.02 0.16 0.16 97 1017.5
20260903144516 76 205 0.0 3.0 0.00 0.15 0.15 97 1015.9
20260903144013 76 222 2.0 3.0 0.00 0.15 0.15 97 1015.4
20260903143509 76 199 0.0 3.0 0.00 0.15 0.15 97 1015.4
20260903143005 76 225 2.0 3.0 0.00 0.15 0.15 97 1015.2
20260903142459 77 129 0.0 1.0 0.00 0.15 0.15 96 1015.2
20260903141955 77 160 0.0 2.0 0.00 0.15 0.15 96 1015.2
20260903141451 77 164 0.0 1.0 0.00 0.15 0.15 96 1015.4
20260903140947 77 160 2.0 3.0 0.00 0.15 0.15 96 1015.7
20260903140442 77 243 2.0 3.0 0.00 0.15 0.15 96 1015.5
20260903135937 76 156 1.0 2.0 0.00 0.15 0.15 98 1015.4
20260903135433 75 129 0.0 2.0 0.00 0.15 0.15 99 1015.2
20260903134927 75 205 0.0 2.0 0.00 0.15 0.15 99 1015.2
20260903134426 75 55 0.0 1.0 0.00 0.15 0.15 99 1015.2
20260903133924 74 135 0.0 2.0 0.00 0.15 0.15 99 1015.4
20260903133420 74 223 1.0 3.0 0.00 0.15 0.15 99 1015.4
20260903132915 73 127 0.0 2.0 0.00 0.15 0.15 99 1015.4
20260903132410 73 242 0.0 3.0 0.00 0.15 0.15 99 1015.5
20260903131905 73 104 0.0 2.0 0.00 0.15 0.15 99 1015.5
20260903131405 73 129 0.0 2.0 0.00 0.15 0.15 99 1015.7
20260903130904 72 220 0.0 2.0 0.00 0.15 0.15 99 1015.5
20260903130359 72 181 0.0 2.0 0.00 0.15 0.15 99 1015.6
20260903125858 72 154 0.0 2.0 0.00 0.15 0.15 99 1015.4
20260903125353 72 154 0.0 1.0 0.00 0.15 0.15 99 1015.6
20260903124852 72 129 0.0 1.0 0.00 0.15 0.15 99 1015.4
20260903124348 72 75 0.0 1.0 0.00 0.15 0.15 99 1015.5
20260903123846 71 135 0.0 0.0 0.00 0.15 0.15 99 1015.5
20260903123341 71 129 0.0 1.0 0.00 0.15 0.15 99 1015.7
20260903122839 71 117 0.0 1.0 0.00 0.15 0.15 99 1015.7
20260903122335 71 157 0.0 1.0 0.00 0.15 0.15 99 1015.7
20260903121833 71 142 0.0 1.0 0.00 0.15 0.15 99 1015.6
20260903121329 71 135 0.0 1.0 0.00 0.15 0.15 99 1015.8
20260903120824 70 89 0.0 2.0 0.00 0.15 0.15 99 1015.9
20260903120318 70 130 0.0 1.0 0.00 0.15 0.15 99 1015.8
20260903115816 70 104 0.0 2.0 0.00 0.15 0.15 99 1015.7
20260903115312 70 154 0.0 2.0 0.00 0.15 0.15 99 1015.7
20260903114811 69 115 1.0 1.0 0.00 0.15 0.15 99 1015.7
20260903114307 69 61 0.0 1.0 0.00 0.15 0.15 99 1015.7
20260903113802 69 63 0.0 1.0 0.00 0.15 0.15 99 1015.7
20260903113257 69 128 0.0 1.0 0.00 0.15 0.15 99 1015.7
20260903112753 69 89 0.0 0.0 0.00 0.15 0.15 99 1015.7
20260903112249 69 101 0.0 1.0 0.00 0.15 0.15 99 1015.8
20260903111748 69 76 0.0 0.0 0.00 0.15 0.15 99 1015.6
20260903111243 69 113 0.0 1.0 0.00 0.15 0.15 99 1015.7
20260903110739 69 73 0.0 1.0 0.00 0.15 0.15 99 1015.5
20260903110235 69 75 0.0 1.0 0.00 0.15 0.15 99 1015.5
20260903105734 69 89 0.0 0.0 0.00 0.15 0.15 99 1015.6
20260903105229 69 89 0.0 0.0 0.00 0.15 0.15 99 1015.3
20260903104729 68 75 0.0 0.0 0.00 0.15 0.15 99 1015.4
20260903104224 68 103 0.0 0.0 0.00 0.15 0.15 99 1015.3
20260903103720 68 103 0.0 0.0 0.00 0.15 0.15 99 1015.4
20260903103216 69 76 0.0 1.0 0.00 0.15 0.15 99 1015.1
20260903102712 69 76 0.0 1.0 0.00 0.15 0.15 99 1015.3
20260903102211 69 118 0.0 1.0 0.00 0.15 0.15 99 1015.3
20260903101710 69 129 0.0 0.0 0.00 0.15 0.15 99 1015.1
20260903101206 69 104 0.0 1.0 0.00 0.15 0.15 99 1015.0
20260903100705 69 142 0.0 1.0 0.00 0.15 0.15 99 1015.3
20260903100200 69 110 0.0 0.0 0.00 0.15 0.15 99 1015.0
20260903095657 69 117 0.0 2.0 0.00 0.15 0.15 99 1015.0
20260903095152 69 75 0.0 0.0 0.00 0.15 0.15 99 1015.1
20260903094647 69 65 0.0 1.0 0.00 0.15 0.15 99 1015.2
20260903094143 69 117 0.0 1.0 0.00 0.15 0.15 99 1015.1
20260903093637 69 117 0.0 1.0 0.00 0.15 0.15 99 1015.0
20260903093132 69 130 0.0 0.0 0.00 0.15 0.15 99 1015.1
20260903092627 69 168 0.0 2.0 0.00 0.15 0.15 99 1014.8
20260903092122 69 135 0.0 1.0 0.00 0.15 0.15 99 1015.0
20260903091620 69 180 0.0 1.0 0.00 0.15 0.15 99 1014.9
20260903091115 69 142 0.0 2.0 0.00 0.15 0.15 99 1014.9
20260903090611 69 351 0.0 2.0 0.00 0.15 0.15 99 1014.9
20260903090109 69 246 0.0 1.0 0.00 0.15 0.15 99 1014.8
20260903085608 70 164 0.0 1.0 0.00 0.15 0.15 99 1014.9
20260903085104 70 157 0.0 2.0 0.00 0.15 0.15 99 1014.7
20260903084602 70 242 0.0 2.0 0.00 0.15 0.15 99 1015.0
20260903084057 70 189 1.0 2.0 0.00 0.15 0.15 99 1014.8
20260903083553 70 152 0.0 2.0 0.00 0.15 0.15 99 1014.7
20260903083052 70 164 0.0 1.0 0.00 0.15 0.15 99 1014.7
20260903082546 70 171 0.0 2.0 0.00 0.15 0.15 99 1014.8
20260903082042 70 165 0.0 2.0 0.00 0.15 0.15 99 1014.8
20260903081537 70 149 1.0 2.0 0.00 0.15 0.15 99 1014.8
20260903081033 70 326 0.0 2.0 0.00 0.15 0.15 99 1014.8
20260903080529 70 63 0.0 2.0 0.00 0.15 0.15 99 1014.6
20260903080026 70 203 1.0 2.0 0.00 0.15 0.15 99 1014.8
20260903075520 70 40 0.0 2.0 0.00 0.15 0.15 99 1014.8
20260903075016 70 163 0.0 2.0 0.00 0.15 0.15 99 1014.7
20260903074515 71 232 0.0 2.0 0.00 0.15 0.15 99 1014.7
20260903074009 71 283 0.0 2.0 0.00 0.15 0.15 99 1014.9
20260903073505 71 202 0.0 2.0 0.00 0.15 0.15 99 1014.8
20260903073001 71 220 0.0 2.0 0.00 0.15 0.15 99 1014.8
20260903072456 71 164 0.0 2.0 0.00 0.15 0.15 99 1014.8
20260903071953 71 142 0.0 1.0 0.00 0.15 0.15 99 1014.7
20260903071449 71 163 0.0 1.0 0.00 0.15 0.15 99 1014.7
20260903070944 71 129 0.0 0.0 0.00 0.15 0.15 99 1014.6
20260903070443 71 217 0.0 2.0 0.00 0.15 0.15 99 1014.9
20260903065938 71 175 0.0 2.0 0.02 0.15 0.15 98 1014.7
20260903065433 71 190 1.0 3.0 0.05 0.15 0.15 98 1014.8
20260903064932 71 170 1.0 6.0 0.02 0.15 0.15 98 1015.2
20260903064427 71 229 1.0 3.0 0.00 0.15 0.15 98 1015.0
20260903063923 71 170 0.0 1.0 0.17 0.15 0.15 98 1014.7
20260903063418 71 117 0.0 2.0 0.24 0.14 0.14 98 1014.6
20260903062914 71 173 0.0 1.0 0.09 0.11 0.11 98 1014.8
20260903062414 71 135 0.0 0.0 0.02 0.10 0.10 98 1014.9
20260903061909 71 135 0.0 0.0 0.00 0.10 0.10 97 1014.5
20260903061409 71 129 0.0 1.0 0.00 0.10 0.10 97 1014.6
20260903060904 72 117 0.0 1.0 0.00 0.10 0.10 97 1014.7
20260903060359 72 129 0.0 1.0 0.00 0.10 0.10 97 1014.6
20260903055857 72 95 1.0 2.0 0.02 0.10 0.10 97 1014.8
20260903055355 72 135 0.0 5.0 0.07 0.10 0.10 96 1014.9
20260903054850 72 17 1.0 2.0 0.07 0.09 0.09 96 1015.1
20260903054350 72 149 1.0 2.0 0.14 0.09 0.09 96 1015.2
20260903053847 72 147 1.0 2.0 0.09 0.08 0.08 95 1015.1
20260903053341 72 284 0.0 1.0 0.17 0.06 0.06 94 1014.8
20260903052837 73 62 0.0 1.0 0.35 0.06 0.06 92 1014.7
20260903052332 73 77 2.0 2.0 0.05 0.01 0.01 90 1014.7
20260903051828 73 25 0.0 2.0 0.00 0.00 0.00 90 1014.9
20260903051324 73 88 0.0 1.0 0.00 0.00 0.00 89 1014.6
20260903050819 73 89 0.0 0.0 0.00 0.00 0.00 89 1014.7
20260903050318 73 89 0.0 0.0 0.00 0.00 0.00 88 1014.5
20260903045813 73 119 0.0 1.0 0.00 0.00 0.00 88 1014.5
20260903045308 73 136 0.0 1.0 0.00 0.00 0.00 88 1014.5
20260903044805 73 217 0.0 2.0 0.00 0.00 0.00 87 1014.5
20260903044300 74 117 0.0 1.0 0.00 0.00 0.00 87 1014.3
20260903043757 74 156 0.0 1.0 0.00 0.00 0.00 87 1014.5
20260903043256 74 255 0.0 0.0 0.00 0.00 0.00 86 1014.5
20260903042755 74 255 0.0 0.0 0.00 0.00 0.00 86 1014.5
20260903042251 74 255 0.0 0.0 0.00 0.00 0.00 86 1014.4
20260903041747 75 255 0.0 0.0 0.00 0.00 0.00 86 1014.3
20260903041243 75 255 0.0 2.0 0.00 0.00 0.00 86 1014.3
20260903040743 75 333 0.0 0.0 0.00 0.00 0.00 87 1014.5
20260903040237 74 242 0.0 2.0 0.00 0.00 0.00 87 1014.4
20260903035733 74 177 0.0 1.0 0.00 0.00 0.00 88 1014.3
20260903035229 74 332 0.0 2.0 0.00 0.00 0.00 88 1014.4
20260903034723 74 159 0.0 2.0 0.00 0.00 0.00 89 1014.3
20260903034218 75 159 1.0 3.0 0.00 0.00 0.00 89 1014.8
20260903033713 75 165 0.0 3.0 0.00 0.00 0.00 89 1014.6
20260903033208 75 200 0.0 3.0 0.00 0.00 0.00 90 1014.3
20260903032703 76 155 0.0 2.0 0.00 0.00 0.00 90 1014.1
20260903032159 76 180 0.0 2.0 0.00 0.00 0.00 90 1013.8
20260903031654 77 187 0.0 2.0 0.00 0.00 0.00 90 1013.9
20260903031154 77 173 1.0 2.0 0.00 0.00 0.00 89 1014.0
20260903030650 77 96 0.0 2.0 0.00 0.00 0.00 88 1013.9
20260903030145 78 108 3.0 4.0 0.00 0.00 0.00 88 1014.1
20260903025640 78 184 2.0 3.0 0.00 0.00 0.00 89 1013.8
20260903025136 78 242 0.0 3.0 0.00 0.00 0.00 89 1013.6
20260903024630 78 190 0.0 7.0 0.00 0.00 0.00 89 1013.8
20260903024124 78 213 3.0 3.0 0.00 0.00 0.00 89 1014.1
20260903023620 78 309 0.0 1.0 0.00 0.00 0.00 89 1013.9
20260903023115 78 171 1.0 2.0 0.00 0.00 0.00 89 1013.9
20260903022615 78 117 0.0 1.0 0.00 0.00 0.00 89 1013.7
20260903022114 79 155 0.0 2.0 0.00 0.00 0.00 89 1013.4
20260903021603 79 197 0.0 2.0 0.00 0.00 0.00 88 1013.0
20260903021103 79 157 0.0 0.0 0.00 0.00 0.00 87 1013.4
20260903020558 80 154 0.0 0.0 0.00 0.00 0.00 86 1013.9
20260903020053 80 32 0.0 2.0 0.00 0.00 0.00 84 1014.3
20260903015548 80 315 0.0 0.0 0.00 0.00 0.00 83 1014.2
20260903015038 81 329 2.0 3.0 0.00 0.00 0.00 83 1014.5
20260903014537 81 56 1.0 4.0 0.00 0.00 0.00 82 1014.3
20260903014032 81 333 1.0 2.0 0.00 0.00 0.00 82 1014.3
20260903013531 81 9 1.0 2.0 0.00 0.00 0.00 82 1014.5
20260903013026 81 3 1.0 3.0 0.00 0.00 0.00 83 1014.3
20260903012520 81 146 1.0 2.0 0.00 0.00 0.00 84 1014.3
20260903012019 80 22 1.0 3.0 0.00 0.00 0.00 85 1014.2
20260903011519 80 310 0.0 0.0 0.00 0.00 0.00 85 1014.2
20260903011014 80 117 0.0 0.0 0.00 0.00 0.00 85 1014.3
20260903010509 80 117 0.0 0.0 0.00 0.00 0.00 84 1014.1
20260903010007 81 117 0.0 0.0 0.00 0.00 0.00 84 1013.9
20260903005502 81 202 0.0 2.0 0.00 0.00 0.00 84 1013.6
20260903004959 81 198 0.0 2.0 0.00 0.00 0.00 83 1013.6
20260903004458 81 179 0.0 2.0 0.00 0.00 0.00 84 1013.4
20260903003954 81 309 0.0 0.0 0.00 0.00 0.00 83 1013.7
20260903003448 81 187 0.0 2.0 0.00 0.00 0.00 83 1013.4
20260903002943 82 160 2.0 3.0 0.00 0.00 0.00 83 1013.4
20260903002438 82 210 1.0 2.0 0.00 0.00 0.00 83 1013.2
20260903001938 81 157 0.0 2.0 0.00 0.00 0.00 83 1013.2
20260903001437 81 131 1.0 2.0 0.00 0.00 0.00 84 1013.4
20260903000932 80 143 0.0 2.0 0.00 0.00 0.00 86 1013.4
20260903000428 80 129 0.0 2.0 0.00 0.00 0.00 87 1013.2
20260902235925 80 157 0.0 2.0 0.00 0.00 0.00 86 1013.2
20260902235421 82 127 1.0 2.0 0.02 0.00 0.00 83 1013.7
20260902234915 85 136 1.0 3.0 0.02 0.00 0.00 75 1013.6
20260902234410 85 175 0.0 2.0 0.00 0.00 0.00 72 1013.4
20260902233909 86 196 1.0 2.0 0.00 0.00 0.00 71 1013.3
20260902233409 86 170 1.0 2.0 0.00 0.00 0.00 70 1013.6
20260902232908 87 201 1.0 2.0 0.00 0.00 0.00 69 1013.4
20260902232403 87 205 0.0 2.0 0.00 0.00 0.00 69 1013.4
20260902231857 87 156 0.0 4.0 0.00 0.00 0.00 67 1013.4
20260902231352 88 225 1.0 2.0 0.00 0.00 0.00 67 1013.4
20260902230846 88 230 1.0 4.0 0.00 0.00 0.00 67 1013.2
20260902230346 87 180 0.0 5.0 0.00 0.00 0.00 67 1013.1
20260902225840 87 212 0.0 3.0 0.00 0.00 0.00 67 1013.2
20260902225336 88 133 1.0 3.0 0.00 0.00 0.00 67 1013.2
20260902224834 88 188 0.0 3.0 0.00 0.00 0.00 66 1013.2
20260902224329 88 198 2.0 5.0 0.00 0.00 0.00 65 1013.2
20260902223826 89 178 1.0 4.0 0.00 0.00 0.00 66 1013.2
20260902223325 89 341 2.0 5.0 0.00 0.00 0.00 65 1013.1
20260902222819 89 211 2.0 3.0 0.00 0.00 0.00 66 1013.4